STARLINK-5695, 55485

Orbit data source: Space-Track

STARLINK-5695, 55485 is a payload satellite owned by SpaceX/Seattle (US) in LEO that was launched on Thu, 02 Feb 2023 UTC via an FALCON 9 launch vehicle from the Air Force Eastern Test Range (AFETR). Payload-class satellites include a variety of spacecraft equipped with specific instruments for various scientific and technological missions. These include communications satellites like Starlink; space stations such as the ISS; scientific satellites like the Hubble; Earth observation satellites from companies like Planet Labs, Umbra, and HawkEye 360; GPS; miniature CubeSats for education and research; and military/defense satellites.

Loading next visibility...
Identifier
55485, 2023-015AN
Orbit
LEO
Country
Flag of USUS
Related business
Manufacturer
SpaceX/Seattle
Mission
Operational Commercial Communications
Bus & Motor
STARLINK, Unknown motor
Mass
305 kg wet, ~290 kg dry
Launch date (UTC)
2023-02-02 (3 years ago)
Launch vehicle
FALCON 9
Launch site
Air Force Eastern Test Range (AFETR)
Object type
Payload
Rocket body
Debris
Shape & HBR
Box + 1 Pan, 10.1 m
Radar Cross Section
13.562 m², Large (>1 m²)

Expand to show TLE details & history
Last TLE update: 2 days ago

TLE from 2 days ago
0 STARLINK-5695
1 55485U 23015AN  25306.32470142  .00000248  00000-0  33452-4 0  9992
2 55485  43.0065 311.1631 0001118 267.3306  92.7409 15.02537650151441
Epoch: 2025-11-02T07:47Z
TLE epoch observation values (Epoch: 2025-11-02T07:47:34.202Z)
Latitude
0.00001°
Longitude
152.42855°
Altitude
558.89 km
Speed
7.584 km/s
True Right ascension
20h 44m 39s
True Declination
0° 00' 00"
Sunlit
Object was in daylight at epoch
Visualization orbit readout
Latitude
Unknown
Longitude
Unknown
Altitude
Unknown
Speed
Unknown
Apparent Right ascension
Unknown
Apparent Declination
Unknown
Sunlit
N/A
Visualization observer readout
Local Sidereal Time
00:13:59
Azimuth
Unknown
Elevation
Unknown
Doppler factor
Unknown
Orbital elements
Apogee altitude
561.773 km
Perigee altitude
560.222 km
Semi-major axis
6,939.134 km
Eccentricity
0.00011
Inclination
43.0065°
RAAN
311.1631°
Arg. of periapsis
267.3306°
True anomaly
92.7537°
Mean anomaly
92.7409°
Eccentric anomaly
92.7473°
Mean motion
3.75479 °/min
Orbital period
95.88 mins
BSTAR
0.000033452
Loading maneuver chart data...
Computing Atmospheric mass density...
Loading historical data...
Loading historical data...
Loading historical data...
Loading historical data...
Loading historical data...
Loading historical data...
Loading historical data...

Documentation

Showing up to 5 results
|